{"data":{"norad_id":55284,"epoch":"2026-09-20T22:00:03.000096Z","epoch_age_seconds":56704,"freshness":"FRESH","line1":"1 55284U 23010R   26263.91670139  .00121509  00000+0  89601-2 0  9998","line2":"2 55284  69.9987 272.0257 0003515 322.0212  46.5423 15.02596221  5760","mean_motion":15.02596221,"eccentricity":0.0003515,"inclination_deg":69.9987,"raan_deg":272.0257,"arg_perigee_deg":322.0212,"mean_anomaly_deg":46.5423,"bstar":0.0089601,"rev_number":576,"period_min":95.834128947939,"perigee_km":556.45581267328,"apogee_km":561.33254559221,"semimajor_km":6937.0311791327,"source":"CELESTRAK","updated_at":"2026-09-21T09:00:33.167413Z"}}